Weather in Pokrovske

Ukraine / Dnipropetrovsk Region     47°58′56″N   36°14′01″E
temp.,
°C
wind,
m/s
gust,
m/s
humid.,
%
clouds,
%
prec.,
mm/h
press.,
hPa
HPBL,
m
2 july, sat
sat200:00+17nne411702 0.0 1015223
03:00+14nne410740 0.0 1017232
06:00+13ne510730 0.0 1018306
09:00+18nne68440 0.0 1019909
12:00+21nne56290 0.0 10191388
15:00+24n56320 0.0 10191812
18:00+23n68360 0.0 10191805
21:00+17nne46550 0.0 101990
3 july, sun
sun300:00+15n49680 0.0 1019157
03:00+13n35815 0.0 102081
06:00+14nnw37800 0.0 1020184
09:00+21n56510 0.0 1019969
12:00+25n56351 0.0 10181993
15:00+27n563314 0.0 10172481
18:00+26n663645 0.0 10172208
21:00+20n33565 0.0 101819
4 july, mon
mon400:00+18n36675 0.0 101879
03:00+16nnw33751 0.0 101836
06:00+17nnw36755 0.0 1018152
09:00+24nnw56525 0.0 1018740
12:00+29n57374 0.0 10172535
15:00+31nne56294 0.0 10162883
18:00+30ne553020 0.0 10152603
21:00+24ne334260 0.0 101627
5 july, tue
tue500:00+21ne22506 0.0 101715
03:00+19ene22631 0.0 101819
06:00+19ese34640 0.0 101878
09:00+26e22430 0.0 1018609
12:00+30ne33341 0.0 10182292
15:00+31nne322960 0.0 10162807
18:00+30ene643425 0.0 10161467
21:00+24e45433 0.0 101760
6 july, wed
wed600:00+20ese33460 0.0 101832
03:00+19e22500 0.0 101816
06:00+19ese35540 0.0 101893
09:00+27se45330 0.0 1018645
12:00+31ese34250 0.0 10172619
15:00+33e44221 0.0 10162892
18:00+32ene44230 0.0 10152851
21:00+24e45350 0.0 101560